Time,TemperatureF,DewpointF,PressureIn,WindDirection,WindDirectionDegrees,WindSpeedMPH,WindSpeedGustMPH,Humidity,HourlyPrecipIn,Conditions,Clouds,dailyrainin,SolarRadiationWatts/m^2,SoftwareType,DateUTC
2012-02-29 00:24:00,25.0,24.0,-100.00,West,263,25.0,36.0,96,0.00,,,0.00,1.000000,,2012-02-29 08:24:00,
2012-02-29 00:35:00,25.0,24.0,-100.00,West,263,25.0,36.0,96,0.00,,,0.00,1.000000,,2012-02-29 08:35:00,
2012-02-29 00:44:00,25.0,24.0,-100.00,West,263,25.0,36.0,96,0.00,,,0.00,1.000000,,2012-02-29 08:44:00,
2012-02-29 00:53:00,25.0,24.0,-100.00,West,263,25.0,36.0,96,0.00,,,0.00,1.000000,,2012-02-29 08:53:00,
2012-02-29 01:24:00,24.0,23.0,-100.00,WSW,244,12.0,40.0,95,0.00,,,0.00,1.000000,,2012-02-29 09:24:00,
2012-02-29 01:34:00,24.0,23.0,-100.00,WSW,244,12.0,40.0,95,0.00,,,0.00,1.000000,,2012-02-29 09:34:00,
2012-02-29 01:43:00,24.0,23.0,-100.00,WSW,244,12.0,40.0,95,0.00,,,0.00,1.000000,,2012-02-29 09:43:00,
2012-02-29 01:53:00,24.0,23.0,-100.00,WSW,244,12.0,40.0,95,0.00,,,0.00,1.000000,,2012-02-29 09:53:00,
2012-02-29 02:24:00,24.0,23.0,-100.00,WSW,253,16.0,23.0,95,0.00,,,0.00,1.000000,,2012-02-29 10:24:00,
2012-02-29 02:34:00,24.0,23.0,-100.00,WSW,253,16.0,23.0,95,0.00,,,0.00,1.000000,,2012-02-29 10:34:00,
2012-02-29 02:44:00,24.0,23.0,-100.00,WSW,253,16.0,23.0,95,0.00,,,0.00,1.000000,,2012-02-29 10:44:00,
2012-02-29 02:53:00,24.0,23.0,-100.00,WSW,253,16.0,23.0,95,0.00,,,0.00,1.000000,,2012-02-29 10:53:00,
2012-02-29 03:24:00,23.0,21.0,-100.00,West,266,20.0,35.0,93,0.00,,,0.00,1.000000,,2012-02-29 11:24:00,
2012-02-29 03:34:00,23.0,21.0,-100.00,West,266,20.0,35.0,93,0.00,,,0.00,1.000000,,2012-02-29 11:34:00,
2012-02-29 03:44:00,23.0,21.0,-100.00,West,266,20.0,35.0,93,0.00,,,0.00,1.000000,,2012-02-29 11:44:00,
2012-02-29 03:53:00,23.0,21.0,-100.00,West,266,20.0,35.0,93,0.00,,,0.00,1.000000,,2012-02-29 11:53:00,
2012-02-29 04:34:00,22.0,20.0,-100.00,West,262,18.0,35.0,92,0.00,,,0.00,1.000000,,2012-02-29 12:34:00,
2012-02-29 04:44:00,22.0,20.0,-100.00,West,262,18.0,35.0,92,0.00,,,0.00,1.000000,,2012-02-29 12:44:00,
2012-02-29 04:53:00,22.0,20.0,-100.00,West,262,18.0,35.0,92,0.00,,,0.00,1.000000,,2012-02-29 12:53:00,
2012-02-29 05:24:00,22.0,20.0,-100.00,WSW,257,13.0,22.0,92,0.00,,,0.00,1.000000,,2012-02-29 13:24:00,
2012-02-29 05:34:00,22.0,20.0,-100.00,WSW,257,13.0,22.0,92,0.00,,,0.00,1.000000,,2012-02-29 13:34:00,
2012-02-29 05:44:00,22.0,20.0,-100.00,WSW,257,13.0,22.0,92,0.00,,,0.00,1.000000,,2012-02-29 13:44:00,
2012-02-29 05:53:00,22.0,20.0,-100.00,WSW,257,13.0,22.0,92,0.00,,,0.00,1.000000,,2012-02-29 13:53:00,
2012-02-29 06:24:00,21.0,18.0,-100.00,WSW,247,13.0,20.0,89,0.00,,,0.00,1.000000,,2012-02-29 14:24:00,
2012-02-29 06:34:00,21.0,18.0,-100.00,WSW,247,13.0,20.0,89,0.00,,,0.00,1.000000,,2012-02-29 14:34:00,
2012-02-29 06:43:00,21.0,18.0,-100.00,WSW,247,13.0,20.0,89,0.00,,,0.00,1.000000,,2012-02-29 14:43:00,
2012-02-29 06:54:00,21.0,18.0,-100.00,WSW,247,13.0,20.0,89,0.00,,,0.00,1.000000,,2012-02-29 14:54:00,
2012-02-29 07:24:00,21.0,18.0,-100.00,SW,235,12.0,28.0,87,0.00,,,0.00,2.000000,,2012-02-29 15:24:00,
2012-02-29 07:35:00,21.0,18.0,-100.00,SW,235,12.0,28.0,87,0.00,,,0.00,2.000000,,2012-02-29 15:35:00,
2012-02-29 07:46:00,21.0,18.0,-100.00,SW,235,12.0,28.0,87,0.00,,,0.00,2.000000,,2012-02-29 15:46:00,
2012-02-29 07:53:00,21.0,18.0,-100.00,SW,235,12.0,28.0,87,0.00,,,0.00,2.000000,,2012-02-29 15:53:00,
2012-02-29 08:24:00,22.0,20.0,-100.00,SSW,204,7.0,22.0,90,0.00,,,0.00,41.000000,,2012-02-29 16:24:00,
2012-02-29 08:34:00,22.0,20.0,-100.00,SSW,204,7.0,22.0,90,0.00,,,0.00,41.000000,,2012-02-29 16:34:00,
2012-02-29 08:44:00,22.0,20.0,-100.00,SSW,204,7.0,22.0,90,0.00,,,0.00,41.000000,,2012-02-29 16:44:00,
2012-02-29 08:53:00,22.0,20.0,-100.00,SSW,204,7.0,22.0,90,0.00,,,0.00,41.000000,,2012-02-29 16:53:00,
2012-02-29 09:24:00,23.0,20.0,-100.00,SSW,207,9.0,15.0,89,0.00,,,0.00,139.000000,,2012-02-29 17:24:00,
2012-02-29 09:34:00,23.0,20.0,-100.00,SSW,207,9.0,15.0,89,0.00,,,0.00,139.000000,,2012-02-29 17:34:00,
2012-02-29 09:44:00,23.0,20.0,-100.00,SSW,207,9.0,15.0,89,0.00,,,0.00,139.000000,,2012-02-29 17:44:00,
2012-02-29 09:54:00,23.0,20.0,-100.00,SSW,207,9.0,15.0,89,0.00,,,0.00,139.000000,,2012-02-29 17:54:00,
2012-02-29 10:24:00,27.0,24.0,-100.00,SSW,192,8.0,14.0,88,0.00,,,-99.99,246.000000,,2012-02-29 18:24:00,
2012-02-29 10:35:00,27.0,24.0,-100.00,SSW,192,8.0,14.0,88,0.00,,,-99.99,246.000000,,2012-02-29 18:35:00,
2012-02-29 10:44:00,27.0,24.0,-100.00,SSW,192,8.0,14.0,88,0.00,,,-99.99,246.000000,,2012-02-29 18:44:00,
2012-02-29 10:53:00,27.0,24.0,-100.00,SSW,192,8.0,14.0,88,0.00,,,-99.99,246.000000,,2012-02-29 18:53:00,
2012-02-29 11:24:00,26.0,24.0,-100.00,SSW,197,9.0,18.0,91,0.00,,,0.00,231.000000,,2012-02-29 19:24:00,
2012-02-29 11:34:00,26.0,24.0,-100.00,SSW,197,9.0,18.0,91,0.00,,,0.00,231.000000,,2012-02-29 19:34:00,
2012-02-29 11:44:00,26.0,24.0,-100.00,SSW,197,9.0,18.0,91,0.00,,,0.00,231.000000,,2012-02-29 19:44:00,
2012-02-29 11:53:00,26.0,24.0,-100.00,SSW,197,9.0,18.0,91,0.00,,,0.00,231.000000,,2012-02-29 19:53:00,
2012-02-29 12:24:00,27.0,25.0,-100.00,SW,223,8.0,14.0,91,0.00,,,-99.99,277.000000,,2012-02-29 20:24:00,
2012-02-29 12:35:00,27.0,25.0,-100.00,SW,223,8.0,14.0,91,0.00,,,-99.99,277.000000,,2012-02-29 20:35:00,
2012-02-29 12:44:00,27.0,25.0,-100.00,SW,223,8.0,14.0,91,0.00,,,-99.99,277.000000,,2012-02-29 20:44:00,
2012-02-29 12:54:00,27.0,25.0,-100.00,SW,223,8.0,14.0,91,0.00,,,-99.99,277.000000,,2012-02-29 20:54:00,
2012-02-29 13:24:00,29.0,26.0,-100.00,SSW,207,8.0,14.0,87,0.00,,,0.00,357.000000,,2012-02-29 21:24:00,
2012-02-29 13:36:00,29.0,26.0,-100.00,SSW,207,8.0,14.0,87,0.00,,,0.00,357.000000,,2012-02-29 21:36:00,
2012-02-29 13:44:00,29.0,26.0,-100.00,SSW,207,8.0,14.0,87,0.00,,,0.00,357.000000,,2012-02-29 21:44:00,
2012-02-29 13:53:00,29.0,26.0,-100.00,SSW,207,8.0,14.0,87,0.00,,,0.00,357.000000,,2012-02-29 21:53:00,
2012-02-29 14:24:00,28.0,25.0,-100.00,SW,219,7.0,16.0,90,0.05,,,0.05,315.000000,,2012-02-29 22:24:00,
2012-02-29 14:35:00,28.0,25.0,-100.00,SW,219,7.0,16.0,90,0.05,,,0.05,315.000000,,2012-02-29 22:35:00,
2012-02-29 14:44:00,28.0,25.0,-100.00,SW,219,7.0,16.0,90,0.05,,,0.05,315.000000,,2012-02-29 22:44:00,
2012-02-29 14:53:00,28.0,25.0,-100.00,SW,219,7.0,16.0,90,0.05,,,0.05,315.000000,,2012-02-29 22:53:00,
2012-02-29 15:24:00,29.0,26.0,-100.00,WSW,240,8.0,12.0,88,0.00,,,0.05,247.000000,,2012-02-29 23:24:00,
2012-02-29 15:34:00,29.0,26.0,-100.00,WSW,240,8.0,12.0,88,0.00,,,0.05,247.000000,,2012-02-29 23:34:00,
2012-02-29 15:44:00,29.0,26.0,-100.00,WSW,240,8.0,12.0,88,0.00,,,0.05,247.000000,,2012-02-29 23:44:00,
2012-02-29 15:53:00,29.0,26.0,-100.00,WSW,240,8.0,12.0,88,0.00,,,0.05,247.000000,,2012-02-29 23:53:00,
2012-02-29 16:24:00,28.0,25.0,-100.00,WSW,252,5.0,14.0,88,0.00,,,0.05,263.000000,,2012-03-01 00:24:00,
2012-02-29 16:35:00,28.0,25.0,-100.00,WSW,252,5.0,14.0,88,0.00,,,0.05,263.000000,,2012-03-01 00:35:00,
2012-02-29 16:44:00,28.0,25.0,-100.00,WSW,252,5.0,14.0,88,0.00,,,0.05,263.000000,,2012-03-01 00:44:00,
2012-02-29 16:53:00,28.0,25.0,-100.00,WSW,252,5.0,14.0,88,0.00,,,0.05,263.000000,,2012-03-01 00:53:00,
2012-02-29 17:24:00,25.0,22.0,-100.00,WSW,254,13.0,20.0,87,0.00,,,0.05,133.000000,,2012-03-01 01:24:00,
2012-02-29 17:34:00,25.0,22.0,-100.00,WSW,254,13.0,20.0,87,0.00,,,0.05,133.000000,,2012-03-01 01:34:00,
2012-02-29 17:43:00,25.0,22.0,-100.00,WSW,254,13.0,20.0,87,0.00,,,0.05,133.000000,,2012-03-01 01:43:00,
2012-02-29 17:53:00,25.0,22.0,-100.00,WSW,254,13.0,20.0,87,0.00,,,0.05,133.000000,,2012-03-01 01:53:00,
2012-02-29 18:24:00,25.0,22.0,-100.00,SW,228,13.0,22.0,89,0.00,,,0.05,25.000000,,2012-03-01 02:24:00,
2012-02-29 18:34:00,25.0,22.0,-100.00,SW,228,13.0,22.0,89,0.00,,,0.05,25.000000,,2012-03-01 02:34:00,
2012-02-29 18:44:00,25.0,22.0,-100.00,SW,228,13.0,22.0,89,0.00,,,0.05,25.000000,,2012-03-01 02:44:00,
2012-02-29 18:54:00,25.0,22.0,-100.00,SW,228,13.0,22.0,89,0.00,,,0.05,25.000000,,2012-03-01 02:54:00,
2012-02-29 19:24:00,24.0,22.0,-100.00,SW,226,11.0,19.0,91,0.00,,,0.05,1.000000,,2012-03-01 03:24:00,
2012-02-29 19:34:00,24.0,22.0,-100.00,SW,226,11.0,19.0,91,0.00,,,0.05,1.000000,,2012-03-01 03:34:00,
2012-02-29 19:45:00,24.0,22.0,-100.00,SW,226,11.0,19.0,91,0.00,,,0.05,1.000000,,2012-03-01 03:45:00,
2012-02-29 19:53:00,24.0,22.0,-100.00,SW,226,11.0,19.0,91,0.00,,,0.05,1.000000,,2012-03-01 03:53:00,
2012-02-29 20:24:00,24.0,23.0,-100.00,SW,227,9.0,15.0,94,0.00,,,0.05,1.000000,,2012-03-01 04:24:00,
2012-02-29 20:34:00,24.0,23.0,-100.00,SW,227,9.0,15.0,94,0.00,,,0.05,1.000000,,2012-03-01 04:34:00,
2012-02-29 20:43:00,24.0,23.0,-100.00,SW,227,9.0,15.0,94,0.00,,,0.05,1.000000,,2012-03-01 04:43:00,
2012-02-29 20:53:00,24.0,23.0,-100.00,SW,227,9.0,15.0,94,0.00,,,0.05,1.000000,,2012-03-01 04:53:00,
2012-02-29 21:24:00,24.0,23.0,-100.00,SW,222,9.0,18.0,94,0.00,,,0.05,1.000000,,2012-03-01 05:24:00,
2012-02-29 21:34:00,24.0,23.0,-100.00,SW,222,9.0,18.0,94,0.00,,,0.05,1.000000,,2012-03-01 05:34:00,
2012-02-29 21:43:00,24.0,23.0,-100.00,SW,222,9.0,18.0,94,0.00,,,0.05,1.000000,,2012-03-01 05:43:00,
2012-02-29 21:53:00,24.0,23.0,-100.00,SW,222,9.0,18.0,94,0.00,,,0.05,1.000000,,2012-03-01 05:53:00,
2012-02-29 22:24:00,23.0,21.0,-100.00,SW,223,7.0,18.0,91,0.00,,,0.05,1.000000,,2012-03-01 06:24:00,
2012-02-29 22:34:00,23.0,21.0,-100.00,SW,223,7.0,18.0,91,0.00,,,0.05,1.000000,,2012-03-01 06:34:00,
2012-02-29 22:44:00,23.0,21.0,-100.00,SW,223,7.0,18.0,91,0.00,,,0.05,1.000000,,2012-03-01 06:44:00,
2012-02-29 22:53:00,23.0,21.0,-100.00,SW,223,7.0,18.0,91,0.00,,,0.05,1.000000,,2012-03-01 06:53:00,
2012-02-29 23:24:00,23.0,21.0,-100.00,South,185,6.0,15.0,93,0.00,,,0.05,1.000000,,2012-03-01 07:24:00,
2012-02-29 23:34:00,23.0,21.0,-100.00,South,185,6.0,15.0,93,0.00,,,0.05,1.000000,,2012-03-01 07:34:00,
2012-02-29 23:43:00,23.0,21.0,-100.00,South,185,6.0,15.0,93,0.00,,,0.05,1.000000,,2012-03-01 07:43:00,
2012-02-29 23:53:00,23.0,21.0,-100.00,South,185,6.0,15.0,93,0.00,,,0.05,1.000000,,2012-03-01 07:53:00,